Time,TemperatureF,DewpointF,PressureIn,WindDirection,WindDirectionDegrees,WindSpeedMPH,WindSpeedGustMPH,Humidity,HourlyPrecipIn,Conditions,Clouds,dailyrainin,SoftwareType,DateUTC
2013-08-29 00:01:00,63.4,63.0,29.38,NE,45,5.0,7.0,100,0.00,,,0.00,Rainwise IP-100,2013-08-29 04:01:00,
2013-08-29 00:06:00,63.4,63.0,29.37,NNE,22,0.0,7.0,100,0.06,,,0.01,Rainwise IP-100,2013-08-29 04:06:00,
2013-08-29 00:11:00,63.4,63.0,29.38,NW,315,4.0,4.0,100,0.06,,,0.01,Rainwise IP-100,2013-08-29 04:11:00,
2013-08-29 00:17:00,63.4,63.0,29.38,West,270,4.0,6.0,100,0.06,,,0.02,Rainwise IP-100,2013-08-29 04:17:00,
2013-08-29 00:22:00,63.4,63.0,29.38,WSW,247,1.0,5.0,100,0.06,,,0.02,Rainwise IP-100,2013-08-29 04:22:00,
2013-08-29 00:27:00,63.4,63.0,29.38,SW,225,4.0,6.0,100,0.06,,,0.03,Rainwise IP-100,2013-08-29 04:27:00,
2013-08-29 00:32:00,63.4,63.0,29.37,WSW,247,6.0,6.0,100,0.06,,,0.03,Rainwise IP-100,2013-08-29 04:32:00,
2013-08-29 00:37:00,63.4,63.0,29.38,WNW,292,5.0,6.0,100,0.00,,,0.03,Rainwise IP-100,2013-08-29 04:37:00,
2013-08-29 00:42:00,63.5,63.0,29.38,WSW,247,3.0,7.0,100,0.06,,,0.04,Rainwise IP-100,2013-08-29 04:42:00,
2013-08-29 00:47:00,63.5,63.0,29.38,West,270,5.0,7.0,100,0.12,,,0.05,Rainwise IP-100,2013-08-29 04:47:00,
2013-08-29 00:53:00,63.8,63.0,29.38,WNW,292,3.0,7.0,100,0.18,,,0.07,Rainwise IP-100,2013-08-29 04:53:00,
2013-08-29 00:58:00,63.7,63.0,29.37,WSW,247,6.0,7.0,100,0.18,,,0.08,Rainwise IP-100,2013-08-29 04:58:00,
2013-08-29 01:03:00,63.7,63.0,29.37,WSW,247,5.0,6.0,100,0.12,,,0.09,Rainwise IP-100,2013-08-29 05:03:00,
2013-08-29 01:08:00,63.7,63.0,29.37,SW,225,2.0,6.0,100,0.12,,,0.10,Rainwise IP-100,2013-08-29 05:08:00,
2013-08-29 01:13:00,63.4,63.0,29.36,SW,225,0.0,3.0,100,0.18,,,0.12,Rainwise IP-100,2013-08-29 05:13:00,
2013-08-29 01:18:00,63.4,63.0,29.36,SW,225,0.0,0.0,100,0.24,,,0.14,Rainwise IP-100,2013-08-29 05:18:00,
2013-08-29 01:23:00,63.3,63.0,29.36,SW,225,0.0,0.0,100,0.24,,,0.16,Rainwise IP-100,2013-08-29 05:23:00,
2013-08-29 01:28:00,63.2,63.0,29.36,SW,225,0.0,0.0,100,0.30,,,0.19,Rainwise IP-100,2013-08-29 05:28:00,
2013-08-29 01:34:00,63.1,63.0,29.35,SW,225,0.0,0.0,100,0.24,,,0.20,Rainwise IP-100,2013-08-29 05:34:00,
2013-08-29 01:39:00,63.1,63.0,29.35,SW,225,0.0,0.0,100,0.18,,,0.22,Rainwise IP-100,2013-08-29 05:39:00,
2013-08-29 01:44:00,62.9,63.0,29.35,NW,315,3.0,3.0,100,0.18,,,0.23,Rainwise IP-100,2013-08-29 05:44:00,
2013-08-29 01:49:00,62.9,63.0,29.35,NW,315,0.0,5.0,100,0.06,,,0.23,Rainwise IP-100,2013-08-29 05:49:00,
2013-08-29 01:54:00,62.9,63.0,29.35,NW,315,0.0,3.0,100,0.06,,,0.24,Rainwise IP-100,2013-08-29 05:54:00,
2013-08-29 01:59:00,62.6,62.0,29.35,NW,315,0.0,0.0,100,0.06,,,0.24,Rainwise IP-100,2013-08-29 05:59:00,
2013-08-29 02:04:00,62.4,62.0,29.35,NW,315,0.0,0.0,100,0.00,,,0.24,Rainwise IP-100,2013-08-29 06:04:00,
2013-08-29 02:10:00,62.3,62.0,29.34,NW,315,0.0,0.0,100,0.00,,,0.24,Rainwise IP-100,2013-08-29 06:10:00,
2013-08-29 02:15:00,61.9,62.0,29.35,NW,315,0.0,0.0,100,0.00,,,0.24,Rainwise IP-100,2013-08-29 06:15:00,
2013-08-29 02:20:00,61.6,61.0,29.35,NW,315,0.0,0.0,100,0.00,,,0.24,Rainwise IP-100,2013-08-29 06:20:00,
2013-08-29 02:25:00,61.3,61.0,29.35,NW,315,0.0,0.0,100,0.00,,,0.24,Rainwise IP-100,2013-08-29 06:25:00,
2013-08-29 02:30:00,61.1,61.0,29.35,NW,315,0.0,0.0,100,0.00,,,0.24,Rainwise IP-100,2013-08-29 06:30:00,
2013-08-29 02:35:00,61.0,61.0,29.35,NW,315,0.0,0.0,100,0.00,,,0.24,Rainwise IP-100,2013-08-29 06:35:00,
2013-08-29 02:40:00,60.9,61.0,29.34,NW,315,0.0,0.0,100,0.00,,,0.24,Rainwise IP-100,2013-08-29 06:40:00,
2013-08-29 02:45:00,60.7,60.0,29.34,NW,315,0.0,0.0,100,0.00,,,0.24,Rainwise IP-100,2013-08-29 06:45:00,
2013-08-29 02:51:00,60.8,60.0,29.35,NW,315,0.0,0.0,100,0.00,,,0.24,Rainwise IP-100,2013-08-29 06:51:00,
2013-08-29 02:56:00,60.7,60.0,29.34,NW,315,0.0,0.0,100,0.00,,,0.24,Rainwise IP-100,2013-08-29 06:56:00,
2013-08-29 03:01:00,60.5,60.0,29.34,NW,315,0.0,0.0,100,0.00,,,0.24,Rainwise IP-100,2013-08-29 07:01:00,
2013-08-29 03:06:00,60.2,60.0,29.34,NW,315,0.0,0.0,100,0.00,,,0.24,Rainwise IP-100,2013-08-29 07:06:00,
2013-08-29 03:11:00,59.9,60.0,29.34,NW,315,1.0,3.0,100,0.00,,,0.24,Rainwise IP-100,2013-08-29 07:11:00,
2013-08-29 03:16:00,59.6,59.0,29.34,NW,315,0.0,1.0,100,0.00,,,0.24,Rainwise IP-100,2013-08-29 07:16:00,
2013-08-29 03:21:00,59.3,59.0,29.34,NW,315,1.0,2.0,100,0.00,,,0.24,Rainwise IP-100,2013-08-29 07:21:00,
2013-08-29 03:27:00,59.1,59.0,29.34,NW,315,0.0,2.0,100,0.00,,,0.24,Rainwise IP-100,2013-08-29 07:27:00,
2013-08-29 03:30:00,58.9,59.0,29.34,NW,315,0.0,0.0,100,0.00,,,0.24,Rainwise IP-100,2013-08-29 07:30:00,
2013-08-29 03:35:00,58.9,59.0,29.34,NW,315,0.0,1.0,100,0.00,,,0.24,Rainwise IP-100,2013-08-29 07:35:00,
2013-08-29 03:40:00,58.9,59.0,29.35,NW,315,0.0,1.0,100,0.00,,,0.24,Rainwise IP-100,2013-08-29 07:40:00,
2013-08-29 03:46:00,59.2,59.0,29.34,NNE,22,0.0,0.0,100,0.00,,,0.24,Rainwise IP-100,2013-08-29 07:46:00,
2013-08-29 03:51:00,59.9,60.0,29.35,NNE,22,2.0,3.0,100,0.00,,,0.24,Rainwise IP-100,2013-08-29 07:51:00,
2013-08-29 03:56:00,60.1,60.0,29.35,NE,45,1.0,4.0,100,0.00,,,0.24,Rainwise IP-100,2013-08-29 07:56:00,
2013-08-29 04:01:00,60.5,60.0,29.35,NNE,22,0.0,4.0,100,0.00,,,0.24,Rainwise IP-100,2013-08-29 08:01:00,
2013-08-29 04:06:00,60.9,61.0,29.35,NW,315,1.0,3.0,100,0.00,,,0.24,Rainwise IP-100,2013-08-29 08:06:00,
2013-08-29 04:11:00,61.1,61.0,29.35,NW,315,0.0,2.0,100,0.00,,,0.24,Rainwise IP-100,2013-08-29 08:11:00,
2013-08-29 04:16:00,61.3,61.0,29.36,NNE,22,0.0,3.0,100,0.00,,,0.24,Rainwise IP-100,2013-08-29 08:16:00,
2013-08-29 04:21:00,61.5,61.0,29.36,WSW,247,1.0,2.0,100,0.00,,,0.24,Rainwise IP-100,2013-08-29 08:21:00,
2013-08-29 04:27:00,61.7,61.0,29.37,NW,315,0.0,4.0,100,0.00,,,0.24,Rainwise IP-100,2013-08-29 08:27:00,
2013-08-29 04:32:00,61.8,61.0,29.37,NW,315,2.0,4.0,100,0.00,,,0.24,Rainwise IP-100,2013-08-29 08:32:00,
2013-08-29 04:37:00,61.8,61.0,29.37,NW,315,1.0,4.0,100,0.00,,,0.24,Rainwise IP-100,2013-08-29 08:37:00,
2013-08-29 04:42:00,61.7,61.0,29.37,NW,315,0.0,3.0,100,0.00,,,0.24,Rainwise IP-100,2013-08-29 08:42:00,
2013-08-29 04:47:00,61.9,62.0,29.37,NW,315,2.0,3.0,100,0.00,,,0.24,Rainwise IP-100,2013-08-29 08:47:00,
2013-08-29 04:52:00,61.9,62.0,29.37,NW,315,1.0,3.0,100,0.00,,,0.24,Rainwise IP-100,2013-08-29 08:52:00,
2013-08-29 04:57:00,61.9,62.0,29.38,NW,315,1.0,2.0,100,0.00,,,0.24,Rainwise IP-100,2013-08-29 08:57:00,
2013-08-29 05:03:00,61.9,62.0,29.38,NW,315,0.0,2.0,100,0.00,,,0.24,Rainwise IP-100,2013-08-29 09:03:00,
2013-08-29 05:08:00,61.8,61.0,29.38,NW,315,0.0,0.0,100,0.00,,,0.24,Rainwise IP-100,2013-08-29 09:08:00,
2013-08-29 05:13:00,61.9,62.0,29.39,NW,315,0.0,0.0,100,0.00,,,0.24,Rainwise IP-100,2013-08-29 09:13:00,
2013-08-29 05:18:00,61.9,62.0,29.39,WNW,292,0.0,4.0,100,0.00,,,0.24,Rainwise IP-100,2013-08-29 09:18:00,
2013-08-29 05:23:00,61.9,62.0,29.39,West,270,0.0,3.0,100,0.00,,,0.24,Rainwise IP-100,2013-08-29 09:23:00,
2013-08-29 05:28:00,61.9,62.0,29.39,West,270,0.0,2.0,100,0.00,,,0.24,Rainwise IP-100,2013-08-29 09:28:00,
2013-08-29 05:33:00,61.9,62.0,29.39,West,270,0.0,0.0,100,0.00,,,0.24,Rainwise IP-100,2013-08-29 09:33:00,
2013-08-29 05:38:00,61.9,62.0,29.39,West,270,1.0,0.0,100,0.00,,,0.24,Rainwise IP-100,2013-08-29 09:38:00,
2013-08-29 05:44:00,62.0,62.0,29.40,West,270,1.0,2.0,100,0.00,,,0.24,Rainwise IP-100,2013-08-29 09:44:00,
2013-08-29 05:49:00,62.2,62.0,29.40,WSW,247,3.0,4.0,100,0.00,,,0.24,Rainwise IP-100,2013-08-29 09:49:00,
2013-08-29 05:52:00,62.2,62.0,29.40,WSW,247,1.0,4.0,100,0.00,,,0.24,Rainwise IP-100,2013-08-29 09:52:00,
2013-08-29 05:57:00,62.1,62.0,29.41,West,270,2.0,3.0,100,0.00,,,0.24,Rainwise IP-100,2013-08-29 09:57:00,
2013-08-29 06:02:00,62.1,62.0,29.41,West,270,2.0,4.0,100,0.00,,,0.24,Rainwise IP-100,2013-08-29 10:02:00,
2013-08-29 06:07:00,62.2,62.0,29.41,West,270,1.0,3.0,100,0.00,,,0.24,Rainwise IP-100,2013-08-29 10:07:00,
2013-08-29 06:13:00,62.2,62.0,29.40,West,270,3.0,3.0,100,0.00,,,0.24,Rainwise IP-100,2013-08-29 10:13:00,
2013-08-29 06:18:00,62.1,62.0,29.41,West,270,0.0,4.0,100,0.00,,,0.24,Rainwise IP-100,2013-08-29 10:18:00,
2013-08-29 06:23:00,61.9,62.0,29.41,West,270,0.0,1.0,100,0.00,,,0.24,Rainwise IP-100,2013-08-29 10:23:00,
2013-08-29 06:28:00,61.9,62.0,29.41,West,270,1.0,3.0,100,0.00,,,0.24,Rainwise IP-100,2013-08-29 10:28:00,
2013-08-29 06:33:00,62.1,62.0,29.41,West,270,0.0,3.0,100,0.00,,,0.24,Rainwise IP-100,2013-08-29 10:33:00,
2013-08-29 06:38:00,62.3,62.0,29.41,West,270,3.0,3.0,100,0.00,,,0.24,Rainwise IP-100,2013-08-29 10:38:00,
2013-08-29 06:43:00,62.4,62.0,29.41,West,270,0.0,3.0,100,0.00,,,0.24,Rainwise IP-100,2013-08-29 10:43:00,
2013-08-29 06:49:00,62.4,62.0,29.42,West,270,0.0,0.0,100,0.00,,,0.24,Rainwise IP-100,2013-08-29 10:49:00,
2013-08-29 06:54:00,62.5,62.0,29.42,West,270,1.0,0.0,100,0.00,,,0.24,Rainwise IP-100,2013-08-29 10:54:00,
2013-08-29 06:59:00,62.6,62.0,29.42,NW,315,1.0,3.0,100,0.00,,,0.24,Rainwise IP-100,2013-08-29 10:59:00,
2013-08-29 07:04:00,62.9,63.0,29.42,NW,315,1.0,3.0,100,0.00,,,0.24,Rainwise IP-100,2013-08-29 11:04:00,
2013-08-29 07:09:00,63.0,63.0,29.42,NW,315,1.0,2.0,100,0.00,,,0.24,Rainwise IP-100,2013-08-29 11:09:00,
2013-08-29 07:14:00,63.1,63.0,29.43,NW,315,0.0,3.0,100,0.00,,,0.24,Rainwise IP-100,2013-08-29 11:14:00,
2013-08-29 07:19:00,63.2,63.0,29.43,West,270,2.0,3.0,100,0.00,,,0.24,Rainwise IP-100,2013-08-29 11:19:00,
2013-08-29 07:24:00,63.1,63.0,29.43,West,270,0.0,3.0,100,0.00,,,0.24,Rainwise IP-100,2013-08-29 11:24:00,
2013-08-29 07:30:00,63.1,63.0,29.43,West,270,0.0,0.0,100,0.00,,,0.24,Rainwise IP-100,2013-08-29 11:30:00,
2013-08-29 07:35:00,63.3,63.0,29.43,West,270,0.0,3.0,100,0.00,,,0.24,Rainwise IP-100,2013-08-29 11:35:00,
2013-08-29 07:40:00,63.4,63.0,29.43,NW,315,0.0,3.0,100,0.00,,,0.24,Rainwise IP-100,2013-08-29 11:40:00,
2013-08-29 07:45:00,63.6,63.0,29.43,NW,315,0.0,2.0,100,0.00,,,0.24,Rainwise IP-100,2013-08-29 11:45:00,
2013-08-29 07:50:00,63.7,63.0,29.43,NW,315,0.0,3.0,100,0.00,,,0.24,Rainwise IP-100,2013-08-29 11:50:00,
2013-08-29 07:55:00,63.9,64.0,29.43,NW,315,0.0,4.0,100,0.00,,,0.24,Rainwise IP-100,2013-08-29 11:55:00,
2013-08-29 08:00:00,64.2,64.0,29.44,NW,315,2.0,3.0,100,0.00,,,0.24,Rainwise IP-100,2013-08-29 12:00:00,
2013-08-29 08:06:00,64.3,64.0,29.44,West,270,2.0,3.0,100,0.00,,,0.24,Rainwise IP-100,2013-08-29 12:06:00,
2013-08-29 08:11:00,64.3,64.0,29.44,West,270,1.0,3.0,100,0.00,,,0.24,Rainwise IP-100,2013-08-29 12:11:00,
2013-08-29 08:16:00,64.3,64.0,29.44,West,270,0.0,4.0,100,0.00,,,0.24,Rainwise IP-100,2013-08-29 12:16:00,
2013-08-29 08:21:00,64.4,64.0,29.44,West,270,0.0,1.0,100,0.00,,,0.24,Rainwise IP-100,2013-08-29 12:21:00,
2013-08-29 08:26:00,64.6,64.0,29.44,West,270,0.0,2.0,100,0.00,,,0.24,Rainwise IP-100,2013-08-29 12:26:00,
2013-08-29 08:31:00,64.6,64.0,29.45,West,270,0.0,1.0,100,0.00,,,0.24,Rainwise IP-100,2013-08-29 12:31:00,
2013-08-29 08:36:00,64.8,64.0,29.45,NW,315,1.0,5.0,100,0.00,,,0.24,Rainwise IP-100,2013-08-29 12:36:00,
2013-08-29 08:41:00,64.9,65.0,29.44,NW,315,2.0,4.0,100,0.00,,,0.24,Rainwise IP-100,2013-08-29 12:41:00,
2013-08-29 08:47:00,64.9,65.0,29.45,NNW,337,2.0,3.0,100,0.00,,,0.24,Rainwise IP-100,2013-08-29 12:47:00,
2013-08-29 08:52:00,65.1,65.0,29.45,ENE,67,0.0,5.0,100,0.00,,,0.24,Rainwise IP-100,2013-08-29 12:52:00,
2013-08-29 08:57:00,65.2,65.0,29.45,NE,45,0.0,1.0,100,0.00,,,0.24,Rainwise IP-100,2013-08-29 12:57:00,
2013-08-29 09:02:00,65.3,65.0,29.45,NE,45,0.0,4.0,100,0.00,,,0.24,Rainwise IP-100,2013-08-29 13:02:00,
2013-08-29 09:07:00,65.3,65.0,29.45,NE,45,0.0,3.0,100,0.00,,,0.24,Rainwise IP-100,2013-08-29 13:07:00,
2013-08-29 09:12:00,65.3,65.0,29.45,NE,45,3.0,4.0,100,0.00,,,0.24,Rainwise IP-100,2013-08-29 13:12:00,
2013-08-29 09:17:00,65.4,65.0,29.45,NNE,22,0.0,4.0,100,0.00,,,0.24,Rainwise IP-100,2013-08-29 13:17:00,
2013-08-29 09:23:00,65.6,65.0,29.46,NNE,22,0.0,3.0,100,0.00,,,0.24,Rainwise IP-100,2013-08-29 13:23:00,
2013-08-29 09:28:00,65.8,65.0,29.46,NNE,22,0.0,2.0,100,0.00,,,0.24,Rainwise IP-100,2013-08-29 13:28:00,
2013-08-29 09:33:00,65.9,66.0,29.46,NNE,22,0.0,1.0,100,0.00,,,0.24,Rainwise IP-100,2013-08-29 13:33:00,
2013-08-29 09:38:00,65.8,65.0,29.46,NNE,22,0.0,1.0,99,0.00,,,0.24,Rainwise IP-100,2013-08-29 13:38:00,
2013-08-29 09:43:00,65.9,65.0,29.46,NNW,337,0.0,2.0,99,0.00,,,0.24,Rainwise IP-100,2013-08-29 13:43:00,
2013-08-29 09:48:00,66.0,65.0,29.46,NW,315,2.0,4.0,99,0.00,,,0.24,Rainwise IP-100,2013-08-29 13:48:00,
2013-08-29 09:53:00,65.9,65.0,29.47,NW,315,1.0,4.0,99,0.00,,,0.24,Rainwise IP-100,2013-08-29 13:53:00,
2013-08-29 09:58:00,65.9,65.0,29.47,NW,315,2.0,3.0,99,0.00,,,0.24,Rainwise IP-100,2013-08-29 13:58:00,
2013-08-29 10:04:00,65.9,65.0,29.47,NW,315,0.0,3.0,99,0.00,,,0.24,Rainwise IP-100,2013-08-29 14:04:00,
2013-08-29 10:09:00,65.9,66.0,29.46,North,360,1.0,3.0,100,0.00,,,0.24,Rainwise IP-100,2013-08-29 14:09:00,
2013-08-29 10:14:00,65.8,65.0,29.46,NNE,22,0.0,5.0,100,0.00,,,0.24,Rainwise IP-100,2013-08-29 14:14:00,
2013-08-29 10:19:00,65.6,65.0,29.46,NNW,337,0.0,4.0,100,0.00,,,0.24,Rainwise IP-100,2013-08-29 14:19:00,
2013-08-29 10:24:00,65.6,65.0,29.46,NNW,337,0.0,1.0,100,0.00,,,0.24,Rainwise IP-100,2013-08-29 14:24:00,
2013-08-29 10:29:00,65.7,65.0,29.46,North,360,0.0,3.0,100,0.00,,,0.24,Rainwise IP-100,2013-08-29 14:29:00,
2013-08-29 10:34:00,65.7,65.0,29.46,NW,315,0.0,4.0,99,0.00,,,0.24,Rainwise IP-100,2013-08-29 14:34:00,
2013-08-29 10:40:00,66.2,66.0,29.47,ENE,67,0.0,3.0,98,0.00,,,0.24,Rainwise IP-100,2013-08-29 14:40:00,
2013-08-29 10:45:00,66.4,66.0,29.47,ENE,67,1.0,4.0,98,0.00,,,0.24,Rainwise IP-100,2013-08-29 14:45:00,
2013-08-29 10:50:00,66.9,66.0,29.47,NE,45,1.0,3.0,98,0.00,,,0.24,Rainwise IP-100,2013-08-29 14:50:00,
2013-08-29 10:55:00,67.3,66.0,29.47,North,360,1.0,4.0,98,0.00,,,0.24,Rainwise IP-100,2013-08-29 14:55:00,
2013-08-29 11:00:00,67.6,66.0,29.47,NE,45,3.0,4.0,96,0.00,,,0.24,Rainwise IP-100,2013-08-29 15:00:00,
2013-08-29 11:05:00,68.1,67.0,29.47,NNE,22,0.0,3.0,98,0.00,,,0.24,Rainwise IP-100,2013-08-29 15:05:00,
2013-08-29 11:10:00,68.8,67.0,29.47,NE,45,3.0,6.0,95,0.00,,,0.24,Rainwise IP-100,2013-08-29 15:10:00,
2013-08-29 11:15:00,70.2,69.0,29.47,NNE,22,1.0,6.0,97,0.00,,,0.24,Rainwise IP-100,2013-08-29 15:15:00,
2013-08-29 11:21:00,70.5,69.0,29.47,NNE,22,4.0,6.0,94,0.00,,,0.24,Rainwise IP-100,2013-08-29 15:21:00,
2013-08-29 11:26:00,70.6,69.0,29.47,NE,45,0.0,6.0,95,0.00,,,0.24,Rainwise IP-100,2013-08-29 15:26:00,
2013-08-29 11:31:00,70.9,69.0,29.47,NE,45,2.0,5.0,94,0.00,,,0.24,Rainwise IP-100,2013-08-29 15:31:00,
2013-08-29 11:36:00,70.9,69.0,29.47,NNE,22,2.0,6.0,94,0.00,,,0.24,Rainwise IP-100,2013-08-29 15:36:00,
2013-08-29 11:41:00,70.9,69.0,29.47,NE,45,6.0,6.0,94,0.00,,,0.24,Rainwise IP-100,2013-08-29 15:41:00,
2013-08-29 11:46:00,70.3,67.0,29.47,East,90,3.0,6.0,91,0.00,,,0.24,Rainwise IP-100,2013-08-29 15:46:00,
2013-08-29 11:51:00,70.4,67.0,29.47,ENE,67,3.0,6.0,91,0.00,,,0.24,Rainwise IP-100,2013-08-29 15:51:00,
2013-08-29 11:57:00,70.9,67.0,29.46,East,90,1.0,6.0,90,0.00,,,0.24,Rainwise IP-100,2013-08-29 15:57:00,
2013-08-29 12:02:00,71.6,68.0,29.47,North,360,0.0,6.0,89,0.00,,,0.24,Rainwise IP-100,2013-08-29 16:02:00,
2013-08-29 12:07:00,72.3,68.0,29.46,NE,45,3.0,6.0,86,0.00,,,0.24,Rainwise IP-100,2013-08-29 16:07:00,
2013-08-29 12:12:00,72.7,68.0,29.46,ESE,112,2.0,7.0,86,0.00,,,0.24,Rainwise IP-100,2013-08-29 16:12:00,
2013-08-29 12:17:00,73.3,66.0,29.46,West,270,1.0,6.0,80,0.00,,,0.24,Rainwise IP-100,2013-08-29 16:17:00,
2013-08-29 12:22:00,74.2,70.0,29.47,East,90,3.0,6.0,87,0.00,,,0.24,Rainwise IP-100,2013-08-29 16:22:00,
2013-08-29 12:27:00,74.0,67.0,29.47,NE,45,1.0,6.0,79,0.00,,,0.24,Rainwise IP-100,2013-08-29 16:27:00,
2013-08-29 12:32:00,75.9,71.0,29.47,NNE,22,0.0,5.0,87,0.00,,,0.24,Rainwise IP-100,2013-08-29 16:32:00,
2013-08-29 12:38:00,76.5,66.0,29.47,WSW,247,5.0,6.0,70,0.00,,,0.24,Rainwise IP-100,2013-08-29 16:38:00,
2013-08-29 12:43:00,74.9,68.0,29.47,SW,225,0.0,6.0,78,0.00,,,0.24,Rainwise IP-100,2013-08-29 16:43:00,
2013-08-29 12:48:00,74.3,68.0,29.47,SE,135,3.0,5.0,80,0.00,,,0.24,Rainwise IP-100,2013-08-29 16:48:00,
2013-08-29 12:53:00,73.5,68.0,29.47,NNE,22,0.0,5.0,83,0.00,,,0.24,Rainwise IP-100,2013-08-29 16:53:00,
2013-08-29 12:58:00,72.8,67.0,29.47,ESE,112,4.0,6.0,84,0.00,,,0.24,Rainwise IP-100,2013-08-29 16:58:00,
2013-08-29 13:03:00,71.6,67.0,29.47,ESE,112,1.0,7.0,87,0.00,,,0.24,Rainwise IP-100,2013-08-29 17:03:00,
2013-08-29 13:08:00,70.9,67.0,29.47,SE,135,5.0,7.0,89,0.00,,,0.24,Rainwise IP-100,2013-08-29 17:08:00,
2013-08-29 13:14:00,70.9,67.0,29.47,ESE,112,2.0,6.0,89,0.00,,,0.24,Rainwise IP-100,2013-08-29 17:14:00,
2013-08-29 13:19:00,70.4,67.0,29.46,SSE,157,0.0,7.0,89,0.00,,,0.24,Rainwise IP-100,2013-08-29 17:19:00,
2013-08-29 13:24:00,70.3,66.0,29.46,SE,135,4.0,6.0,89,0.00,,,0.24,Rainwise IP-100,2013-08-29 17:24:00,
2013-08-29 13:29:00,70.0,67.0,29.46,East,90,2.0,7.0,90,0.00,,,0.24,Rainwise IP-100,2013-08-29 17:29:00,
2013-08-29 13:34:00,69.9,67.0,29.46,East,90,2.0,7.0,91,0.00,,,0.24,Rainwise IP-100,2013-08-29 17:34:00,
2013-08-29 13:39:00,69.9,67.0,29.46,SE,135,4.0,6.0,92,0.00,,,0.24,Rainwise IP-100,2013-08-29 17:39:00,
2013-08-29 13:44:00,70.4,67.0,29.46,SSE,157,1.0,4.0,91,0.00,,,0.24,Rainwise IP-100,2013-08-29 17:44:00,
2013-08-29 13:49:00,70.7,67.0,29.46,East,90,1.0,6.0,90,0.00,,,0.24,Rainwise IP-100,2013-08-29 17:49:00,
2013-08-29 13:55:00,70.9,68.0,29.46,NE,45,0.0,6.0,91,0.00,,,0.24,Rainwise IP-100,2013-08-29 17:55:00,
2013-08-29 14:00:00,71.5,68.0,29.46,ENE,67,1.0,4.0,89,0.00,,,0.24,Rainwise IP-100,2013-08-29 18:00:00,
2013-08-29 14:05:00,71.9,68.0,29.46,South,180,5.0,7.0,89,0.00,,,0.24,Rainwise IP-100,2013-08-29 18:05:00,
2013-08-29 14:10:00,71.9,66.0,29.46,NE,45,4.0,6.0,84,0.00,,,0.24,Rainwise IP-100,2013-08-29 18:10:00,
2013-08-29 14:15:00,71.7,67.0,29.45,East,90,4.0,6.0,86,0.00,,,0.24,Rainwise IP-100,2013-08-29 18:15:00,
2013-08-29 14:20:00,71.4,66.0,29.45,East,90,2.0,7.0,85,0.00,,,0.24,Rainwise IP-100,2013-08-29 18:20:00,
2013-08-29 14:25:00,71.6,66.0,29.45,ENE,67,4.0,5.0,84,0.00,,,0.24,Rainwise IP-100,2013-08-29 18:25:00,
2013-08-29 14:31:00,71.6,66.0,29.45,ENE,67,4.0,5.0,84,0.00,,,0.24,Rainwise IP-100,2013-08-29 18:31:00,
2013-08-29 14:36:00,71.3,67.0,29.45,ESE,112,3.0,7.0,87,0.00,,,0.24,Rainwise IP-100,2013-08-29 18:36:00,
2013-08-29 14:41:00,71.2,67.0,29.45,East,90,2.0,5.0,88,0.00,,,0.24,Rainwise IP-100,2013-08-29 18:41:00,
2013-08-29 14:46:00,71.1,67.0,29.45,ESE,112,0.0,4.0,89,0.00,,,0.24,Rainwise IP-100,2013-08-29 18:46:00,
2013-08-29 14:51:00,70.9,67.0,29.45,SE,135,2.0,2.0,90,0.00,,,0.24,Rainwise IP-100,2013-08-29 18:51:00,
2013-08-29 14:56:00,70.9,67.0,29.45,SSW,202,0.0,3.0,90,0.00,,,0.24,Rainwise IP-100,2013-08-29 18:56:00,
2013-08-29 15:01:00,70.9,67.0,29.45,SSW,202,0.0,1.0,90,0.00,,,0.24,Rainwise IP-100,2013-08-29 19:01:00,
2013-08-29 15:06:00,70.7,67.0,29.45,ESE,112,0.0,4.0,91,0.00,,,0.24,Rainwise IP-100,2013-08-29 19:06:00,
2013-08-29 15:12:00,70.5,67.0,29.45,ESE,112,0.0,0.0,91,0.00,,,0.24,Rainwise IP-100,2013-08-29 19:12:00,
2013-08-29 15:17:00,70.1,67.0,29.45,SE,135,0.0,6.0,91,0.00,,,0.24,Rainwise IP-100,2013-08-29 19:17:00,
2013-08-29 15:22:00,69.8,67.0,29.45,NNW,337,0.0,6.0,92,0.00,,,0.24,Rainwise IP-100,2013-08-29 19:22:00,
2013-08-29 15:27:00,69.7,67.0,29.44,North,360,0.0,3.0,92,0.00,,,0.24,Rainwise IP-100,2013-08-29 19:27:00,
2013-08-29 15:32:00,69.5,67.0,29.44,East,90,5.0,6.0,92,0.00,,,0.24,Rainwise IP-100,2013-08-29 19:32:00,
2013-08-29 15:37:00,69.2,66.0,29.44,SSW,202,1.0,7.0,91,0.00,,,0.24,Rainwise IP-100,2013-08-29 19:37:00,
2013-08-29 15:42:00,68.9,66.0,29.44,ENE,67,6.0,9.0,91,0.00,,,0.24,Rainwise IP-100,2013-08-29 19:42:00,
2013-08-29 15:48:00,68.8,66.0,29.45,SSE,157,0.0,6.0,92,0.00,,,0.24,Rainwise IP-100,2013-08-29 19:48:00,
2013-08-29 15:53:00,68.9,66.0,29.45,SE,135,2.0,7.0,92,0.00,,,0.24,Rainwise IP-100,2013-08-29 19:53:00,
2013-08-29 15:58:00,68.6,66.0,29.45,ESE,112,0.0,6.0,92,0.00,,,0.24,Rainwise IP-100,2013-08-29 19:58:00,
2013-08-29 16:03:00,68.3,65.0,29.45,East,90,1.0,6.0,92,0.00,,,0.24,Rainwise IP-100,2013-08-29 20:03:00,
2013-08-29 16:08:00,67.8,65.0,29.45,ESE,112,2.0,6.0,92,0.00,,,0.24,Rainwise IP-100,2013-08-29 20:08:00,
2013-08-29 16:13:00,67.6,65.0,29.45,ENE,67,4.0,6.0,93,0.00,,,0.24,Rainwise IP-100,2013-08-29 20:13:00,
2013-08-29 16:18:00,67.7,65.0,29.44,East,90,4.0,5.0,93,0.00,,,0.24,Rainwise IP-100,2013-08-29 20:18:00,
2013-08-29 16:23:00,67.9,66.0,29.44,SSE,157,0.0,5.0,93,0.00,,,0.24,Rainwise IP-100,2013-08-29 20:23:00,
2013-08-29 16:29:00,68.5,66.0,29.44,ENE,67,1.0,6.0,93,0.00,,,0.24,Rainwise IP-100,2013-08-29 20:29:00,
2013-08-29 16:34:00,69.0,66.0,29.44,SSE,157,0.0,7.0,92,0.00,,,0.24,Rainwise IP-100,2013-08-29 20:34:00,
2013-08-29 16:39:00,69.3,67.0,29.44,ESE,112,5.0,6.0,93,0.00,,,0.24,Rainwise IP-100,2013-08-29 20:39:00,
2013-08-29 16:44:00,69.1,66.0,29.44,ENE,67,1.0,8.0,91,0.00,,,0.24,Rainwise IP-100,2013-08-29 20:44:00,
2013-08-29 16:49:00,68.9,66.0,29.44,ESE,112,0.0,6.0,90,0.00,,,0.24,Rainwise IP-100,2013-08-29 20:49:00,
2013-08-29 16:54:00,68.5,66.0,29.44,South,180,1.0,5.0,91,0.00,,,0.24,Rainwise IP-100,2013-08-29 20:54:00,
2013-08-29 16:59:00,68.2,65.0,29.44,South,180,0.0,5.0,92,0.00,,,0.24,Rainwise IP-100,2013-08-29 20:59:00,
2013-08-29 17:05:00,68.1,65.0,29.44,ESE,112,3.0,4.0,92,0.00,,,0.24,Rainwise IP-100,2013-08-29 21:05:00,
2013-08-29 17:10:00,68.1,66.0,29.44,NW,315,0.0,2.0,93,0.00,,,0.24,Rainwise IP-100,2013-08-29 21:10:00,
2013-08-29 17:15:00,68.1,66.0,29.44,NNW,337,0.0,3.0,93,0.00,,,0.24,Rainwise IP-100,2013-08-29 21:15:00,
2013-08-29 17:20:00,68.1,66.0,29.45,ESE,112,0.0,1.0,93,0.00,,,0.24,Rainwise IP-100,2013-08-29 21:20:00,
2013-08-29 17:25:00,67.9,66.0,29.45,ESE,112,0.0,4.0,93,0.00,,,0.24,Rainwise IP-100,2013-08-29 21:25:00,
2013-08-29 17:30:00,67.9,66.0,29.44,ESE,112,1.0,3.0,93,0.00,,,0.24,Rainwise IP-100,2013-08-29 21:30:00,
2013-08-29 17:35:00,67.8,65.0,29.44,ESE,112,0.0,3.0,93,0.00,,,0.24,Rainwise IP-100,2013-08-29 21:35:00,
2013-08-29 17:40:00,67.9,66.0,29.44,ESE,112,0.0,4.0,93,0.00,,,0.24,Rainwise IP-100,2013-08-29 21:40:00,
2013-08-29 17:46:00,67.9,66.0,29.44,ESE,112,2.0,4.0,93,0.00,,,0.24,Rainwise IP-100,2013-08-29 21:46:00,
2013-08-29 17:51:00,67.9,66.0,29.44,ESE,112,0.0,3.0,93,0.00,,,0.24,Rainwise IP-100,2013-08-29 21:51:00,
2013-08-29 17:56:00,68.1,66.0,29.44,SE,135,1.0,4.0,93,0.00,,,0.24,Rainwise IP-100,2013-08-29 21:56:00,
2013-08-29 18:01:00,67.9,66.0,29.44,SE,135,1.0,4.0,93,0.00,,,0.24,Rainwise IP-100,2013-08-29 22:01:00,
2013-08-29 18:06:00,67.8,65.0,29.44,SE,135,0.0,3.0,93,0.00,,,0.24,Rainwise IP-100,2013-08-29 22:06:00,
2013-08-29 18:11:00,67.7,65.0,29.44,ESE,112,1.0,4.0,93,0.00,,,0.24,Rainwise IP-100,2013-08-29 22:11:00,
2013-08-29 18:16:00,67.4,65.0,29.43,ESE,112,1.0,6.0,93,0.00,,,0.24,Rainwise IP-100,2013-08-29 22:16:00,
2013-08-29 18:22:00,67.1,65.0,29.43,East,90,0.0,3.0,94,0.00,,,0.24,Rainwise IP-100,2013-08-29 22:22:00,
2013-08-29 18:27:00,66.9,65.0,29.43,East,90,0.0,5.0,94,0.00,,,0.24,Rainwise IP-100,2013-08-29 22:27:00,
2013-08-29 18:32:00,66.5,65.0,29.43,East,90,0.0,6.0,95,0.00,,,0.24,Rainwise IP-100,2013-08-29 22:32:00,
2013-08-29 18:37:00,66.3,65.0,29.43,ESE,112,0.0,3.0,95,0.00,,,0.24,Rainwise IP-100,2013-08-29 22:37:00,
2013-08-29 18:42:00,66.2,65.0,29.43,East,90,2.0,3.0,95,0.00,,,0.24,Rainwise IP-100,2013-08-29 22:42:00,
2013-08-29 18:47:00,65.9,64.0,29.43,SE,135,0.0,4.0,96,0.00,,,0.24,Rainwise IP-100,2013-08-29 22:47:00,
2013-08-29 18:52:00,65.8,64.0,29.43,SE,135,0.0,1.0,96,0.00,,,0.24,Rainwise IP-100,2013-08-29 22:52:00,
2013-08-29 18:57:00,65.7,64.0,29.43,East,90,2.0,0.0,97,0.00,,,0.24,Rainwise IP-100,2013-08-29 22:57:00,
2013-08-29 19:03:00,65.4,64.0,29.43,East,90,0.0,4.0,97,0.00,,,0.24,Rainwise IP-100,2013-08-29 23:03:00,
2013-08-29 19:08:00,65.2,64.0,29.43,SE,135,0.0,4.0,96,0.00,,,0.24,Rainwise IP-100,2013-08-29 23:08:00,
2013-08-29 19:13:00,65.0,64.0,29.43,ENE,67,2.0,3.0,97,0.00,,,0.24,Rainwise IP-100,2013-08-29 23:13:00,
2013-08-29 19:18:00,64.9,64.0,29.43,East,90,0.0,5.0,97,0.00,,,0.24,Rainwise IP-100,2013-08-29 23:18:00,
2013-08-29 19:23:00,64.7,64.0,29.43,ESE,112,0.0,3.0,98,0.00,,,0.24,Rainwise IP-100,2013-08-29 23:23:00,
2013-08-29 19:28:00,64.6,64.0,29.44,East,90,0.0,4.0,98,0.00,,,0.24,Rainwise IP-100,2013-08-29 23:28:00,
2013-08-29 19:33:00,64.5,64.0,29.43,East,90,0.0,0.0,98,0.00,,,0.24,Rainwise IP-100,2013-08-29 23:33:00,
2013-08-29 19:39:00,64.4,64.0,29.43,West,270,0.0,4.0,98,0.00,,,0.24,Rainwise IP-100,2013-08-29 23:39:00,
2013-08-29 19:44:00,64.3,63.0,29.43,SE,135,0.0,3.0,98,0.00,,,0.24,Rainwise IP-100,2013-08-29 23:44:00,
2013-08-29 19:49:00,64.2,63.0,29.43,SE,135,0.0,3.0,98,0.00,,,0.24,Rainwise IP-100,2013-08-29 23:49:00,
2013-08-29 19:54:00,64.4,63.0,29.43,SE,135,0.0,3.0,97,0.00,,,0.24,Rainwise IP-100,2013-08-29 23:54:00,
2013-08-29 19:59:00,64.3,63.0,29.43,SSW,202,1.0,2.0,98,0.00,,,0.24,Rainwise IP-100,2013-08-29 23:59:00,
2013-08-29 20:04:00,64.2,63.0,29.44,ESE,112,1.0,3.0,98,0.00,,,0.24,Rainwise IP-100,2013-08-30 00:04:00,
2013-08-29 20:09:00,64.1,63.0,29.44,ESE,112,0.0,3.0,98,0.00,,,0.24,Rainwise IP-100,2013-08-30 00:09:00,
2013-08-29 20:14:00,64.1,63.0,29.44,ESE,112,0.0,1.0,98,0.00,,,0.24,Rainwise IP-100,2013-08-30 00:14:00,
2013-08-29 20:20:00,63.8,63.0,29.44,ESE,112,1.0,1.0,99,0.00,,,0.24,Rainwise IP-100,2013-08-30 00:20:00,
2013-08-29 20:25:00,63.7,63.0,29.44,East,90,2.0,4.0,100,0.00,,,0.24,Rainwise IP-100,2013-08-30 00:25:00,
2013-08-29 20:30:00,63.7,63.0,29.44,East,90,1.0,3.0,100,0.00,,,0.24,Rainwise IP-100,2013-08-30 00:30:00,
2013-08-29 20:35:00,63.6,63.0,29.44,East,90,0.0,2.0,100,0.00,,,0.24,Rainwise IP-100,2013-08-30 00:35:00,
2013-08-29 20:40:00,63.6,63.0,29.44,SSE,157,1.0,3.0,100,0.00,,,0.24,Rainwise IP-100,2013-08-30 00:40:00,
2013-08-29 20:45:00,63.5,63.0,29.44,East,90,0.0,3.0,100,0.00,,,0.24,Rainwise IP-100,2013-08-30 00:45:00,
2013-08-29 20:50:00,63.4,63.0,29.44,East,90,0.0,0.0,99,0.00,,,0.24,Rainwise IP-100,2013-08-30 00:50:00,
2013-08-29 20:56:00,63.4,63.0,29.44,East,90,0.0,0.0,99,0.00,,,0.24,Rainwise IP-100,2013-08-30 00:56:00,
2013-08-29 21:01:00,63.4,63.0,29.44,East,90,1.0,0.0,99,0.00,,,0.24,Rainwise IP-100,2013-08-30 01:01:00,
2013-08-29 21:06:00,63.3,62.0,29.45,East,90,0.0,3.0,99,0.00,,,0.24,Rainwise IP-100,2013-08-30 01:06:00,
2013-08-29 21:11:00,63.3,62.0,29.45,East,90,0.0,2.0,99,0.00,,,0.24,Rainwise IP-100,2013-08-30 01:11:00,
2013-08-29 21:16:00,63.2,62.0,29.45,East,90,0.0,0.0,99,0.00,,,0.24,Rainwise IP-100,2013-08-30 01:16:00,
2013-08-29 21:21:00,63.2,62.0,29.45,East,90,0.0,2.0,99,0.00,,,0.24,Rainwise IP-100,2013-08-30 01:21:00,
2013-08-29 21:26:00,63.1,62.0,29.45,East,90,0.0,0.0,99,0.00,,,0.24,Rainwise IP-100,2013-08-30 01:26:00,
2013-08-29 21:31:00,63.1,62.0,29.45,East,90,0.0,2.0,99,0.00,,,0.24,Rainwise IP-100,2013-08-30 01:31:00,
2013-08-29 21:37:00,63.1,62.0,29.45,East,90,0.0,0.0,99,0.00,,,0.24,Rainwise IP-100,2013-08-30 01:37:00,
2013-08-29 21:42:00,63.3,62.0,29.45,East,90,0.0,0.0,98,0.00,,,0.24,Rainwise IP-100,2013-08-30 01:42:00,
2013-08-29 21:47:00,63.3,62.0,29.45,East,90,0.0,0.0,99,0.00,,,0.24,Rainwise IP-100,2013-08-30 01:47:00,
2013-08-29 21:52:00,63.3,62.0,29.45,East,90,0.0,0.0,99,0.00,,,0.24,Rainwise IP-100,2013-08-30 01:52:00,
2013-08-29 21:57:00,63.2,62.0,29.44,East,90,0.0,0.0,98,0.00,,,0.24,Rainwise IP-100,2013-08-30 01:57:00,
2013-08-29 22:02:00,62.9,62.0,29.43,SE,135,0.0,2.0,99,0.00,,,0.24,Rainwise IP-100,2013-08-30 02:02:00,
2013-08-29 22:07:00,62.9,62.0,29.43,SE,135,0.0,1.0,99,0.00,,,0.24,Rainwise IP-100,2013-08-30 02:07:00,
2013-08-29 22:13:00,62.9,62.0,29.43,SE,135,0.0,0.0,99,0.00,,,0.24,Rainwise IP-100,2013-08-30 02:13:00,
2013-08-29 22:18:00,62.9,62.0,29.43,SW,225,3.0,3.0,99,0.00,,,0.24,Rainwise IP-100,2013-08-30 02:18:00,
2013-08-29 22:23:00,62.9,62.0,29.43,SW,225,0.0,4.0,99,0.00,,,0.24,Rainwise IP-100,2013-08-30 02:23:00,
2013-08-29 22:28:00,62.8,62.0,29.43,SSW,202,0.0,3.0,99,0.00,,,0.24,Rainwise IP-100,2013-08-30 02:28:00,
2013-08-29 22:33:00,62.8,62.0,29.43,SSW,202,0.0,2.0,99,0.00,,,0.24,Rainwise IP-100,2013-08-30 02:33:00,
2013-08-29 22:38:00,62.8,62.0,29.43,SSE,157,0.0,3.0,99,0.00,,,0.24,Rainwise IP-100,2013-08-30 02:38:00,
2013-08-29 22:43:00,62.7,62.0,29.43,SSE,157,0.0,1.0,99,0.00,,,0.24,Rainwise IP-100,2013-08-30 02:43:00,
2013-08-29 22:48:00,62.7,62.0,29.43,SW,225,0.0,4.0,99,0.00,,,0.24,Rainwise IP-100,2013-08-30 02:48:00,
2013-08-29 22:54:00,62.6,62.0,29.43,SW,225,0.0,0.0,99,0.00,,,0.24,Rainwise IP-100,2013-08-30 02:54:00,
2013-08-29 22:59:00,62.6,62.0,29.43,West,270,1.0,2.0,99,0.00,,,0.24,Rainwise IP-100,2013-08-30 02:59:00,
2013-08-29 23:04:00,62.6,62.0,29.43,WSW,247,0.0,4.0,100,0.00,,,0.24,Rainwise IP-100,2013-08-30 03:04:00,
2013-08-29 23:09:00,62.5,62.0,29.43,WSW,247,1.0,3.0,99,0.00,,,0.24,Rainwise IP-100,2013-08-30 03:09:00,
2013-08-29 23:14:00,62.5,62.0,29.43,SW,225,2.0,3.0,99,0.00,,,0.24,Rainwise IP-100,2013-08-30 03:14:00,
2013-08-29 23:19:00,62.5,62.0,29.42,SW,225,2.0,4.0,100,0.00,,,0.24,Rainwise IP-100,2013-08-30 03:19:00,
2013-08-29 23:24:00,62.6,62.0,29.42,SW,225,0.0,4.0,99,0.00,,,0.24,Rainwise IP-100,2013-08-30 03:24:00,
2013-08-29 23:30:00,62.6,62.0,29.42,SW,225,1.0,0.0,99,0.00,,,0.24,Rainwise IP-100,2013-08-30 03:30:00,
2013-08-29 23:35:00,62.5,62.0,29.41,SW,225,0.0,2.0,99,0.00,,,0.24,Rainwise IP-100,2013-08-30 03:35:00,
2013-08-29 23:40:00,62.4,62.0,29.41,SSE,157,0.0,4.0,99,0.00,,,0.24,Rainwise IP-100,2013-08-30 03:40:00,
2013-08-29 23:45:00,62.2,62.0,29.41,SSE,157,0.0,0.0,100,0.00,,,0.24,Rainwise IP-100,2013-08-30 03:45:00,
2013-08-29 23:50:00,62.2,62.0,29.41,SSW,202,0.0,1.0,100,0.00,,,0.24,Rainwise IP-100,2013-08-30 03:50:00,
2013-08-29 23:55:00,62.1,62.0,29.41,SW,225,0.0,3.0,100,0.00,,,0.24,Rainwise IP-100,2013-08-30 03:55:00,